Regional Weather Roundup
Issued by NWS

Home | Current Version | Previous Version | Text Only | Print | Product List | Glossary Off
Versions: 1 2 3 4 5 6 7 8 9 10 11 12 13 14 15 16 17 18 19 20 21 22 23 24 25 26 27 28 29 30 31 32 33 34 35 36 37 38 39 40 41 42 43 44 45 46 47 48 49 50

000
ASUS43 KLOT 260104
RWRIL

ILLINOIS REGIONAL WEATHER ROUNDUP
NATIONAL WEATHER SERVICE CHICAGO/ROMEOVILLE IL
800 PM CDT SUN JUN 25 2017

NOTE: "FAIR" INDICATES FEW OR NO CLOUDS BELOW 12,000 FEET WITH NO
SIGNIFICANT WEATHER AND/OR OBSTRUCTIONS TO VISIBILITY.

* THESE STATIONS ARE NOT UNDER NWS QUALITY CONTROL. THEY ALSO MAY NOT
  REPORT WEATHER SUCH AS PRECIPITATION OR FOG.

ILZ001-002-007-009-015-016-024-260200-
NORTHWEST ILLINOIS

CITY           SKY/WX    TMP DP  RH WIND       PRES   REMARKS
MOLINE         CLEAR     68  47  46 NW8       30.15S
STERLING*      CLEAR     65  50  58 W8        30.15S
SAVANNA*       PTCLDY    65  49  56 W10       30.14S
$$

ILZ003-004-008-010-011-017-018-260200-
NORTH CENTRAL ILLINOIS

CITY           SKY/WX    TMP DP  RH WIND       PRES   REMARKS
ROCKFORD       MOCLDY    65  49  56 W13       30.13S
FREEPORT*      PTCLDY    62  49  62 W7        30.15S
ROCHELLE*      PTCLDY    62  50  64 W16       30.14S
DE KALB*       MOCLDY    63  49  61 W14       30.13S
PERU*          CLEAR     64  48  55 NW13      30.15S
$$

ILZ005-006-012>014-019>023-260200-
NORTHEAST ILLINOIS

CITY           SKY/WX    TMP DP  RH WIND       PRES   REMARKS
CHICAGO-OHARE  MOCLDY    66  47  50 W18G26    30.09R
CHICAGO-MIDWAY PTCLDY    66  47  50 W16G25    30.10R
AURORA         MOCLDY    64  49  57 W15       30.13S
LANSING*       PTCLDY    66  47  48 W17G24    30.10R
JOLIET*        PTCLDY    66  48  52 W12G18    30.13R
WAUKEGAN       CLEAR     64  49  57 W10G18    30.08R
DUPAGE AIRPORT MOCLDY    64  50  60 W17G24    30.10S
WHEELING       CLOUDY    66  50  56 W15G23    30.11R
MORRIS*        PTCLDY    64  48  55 NW16G22   30.12S
ROMEOVILLE*    CLEAR     64  45  50 W17G23    30.12S
NORTHERLY ISL    N/A     67  45  45 W10         N/A
$$

LMZ740>746-260200-
SOUTHERN LAKE MICHIGAN

STATION/POSITION SKY/WX   TEMP    WIND        PRES    VSBY  WAVE
                          AIR SEA DIR/SP/G                  HT/PER
                          (F)     (DEG/KT/KT) (MB)    (MI)  (FT/S)
SOUTHERN BUOY              64 62  300/  8/ 10 1017.4          1/ 4
WILMETTE HARBOR            65 64  280/ 14/ 17   N/A           2/ 3
HARRISON CRIB              68     280/ 17/ 18   N/A
BURNHAM HARBOR             66                   N/A
CALUMET HARBOR             69     250/  6/ 13 1018.2R
BURNS HARBOR               68     270/ 17/ 18 1018.6S
MICHIGAN CITY              67     250/ 15/ 17   N/A
MICHIGAN CITY 6N           67 67  280/ 12/ 14   N/A           2/ 3
ST. JOSEPH                 67 70  290/ 10/ 12 1018.2R         1/ 4
$$

ILZ025>027-034>036-040-047-049-050-058-095>099-260200-
WEST-CENTRAL ILLINOIS

CITY           SKY/WX    TMP DP  RH WIND       PRES   REMARKS
QUINCY         CLEAR     69  45  41 NW9       30.18F
GALESBURG*     PTCLDY    67  47  49 W6        30.17S
MACOMB*        PTCLDY    68  45  43 NW6       30.19F
JACKSONVILLE*  CLEAR     69  46  44 W6        30.18S
PITTSFIELD*    CLEAR     71  47  42 NW5       30.19S
$$

ILZ028>032-037-038-041>044-048-051>054-059>061-260200-
CENTRAL ILLINOIS

CITY           SKY/WX    TMP DP  RH WIND       PRES   REMARKS
PONTIAC        CLEAR     67  48  49 NW14G22   30.15S
BLOOMINGTON    CLEAR     67  49  52 NW14      30.16S
DECATUR        CLEAR     69  44  40 NW10      30.16R
PEORIA         PTCLDY    69  48  47 NW5       30.15F
LACON*         CLEAR     66  49  54 NW10G16   30.14S
LINCOLN*       CLEAR     71  47  42 W3        30.16S
SPRINGFIELD    CLEAR     72  46  39 W8        30.17S
TAYLORVILLE    CLEAR     69  46  43 W7        30.18R
$$

ILZ033-039-045-046-055>057-062-063-260200-
EAST-CENTRAL ILLINOIS

CITY           SKY/WX    TMP DP  RH WIND       PRES   REMARKS
CHAMPAIGN      PTCLDY    69  44  40 W10       30.14S
RANTOUL*       CLEAR     70  49  47 NW12G17   30.14S
MATTOON        CLEAR     69  48  47 NW13      30.14S
$$

ILZ079-100>102-260200-
SOUTHWEST ILLINOIS

CITY           SKY/WX    TMP DP  RH WIND       PRES   REMARKS
ALTON          PTCLDY    72  50  46 NW9       30.18R
BELLEVILLE     CLEAR     74  47  38 NW14G21   30.17S
CAHOKIA*       PTCLDY    76  45  33 NW15      30.16R
SPARTA*        PTCLDY    78  49  36 NW5       30.16S
$$

ILZ064>066-069>071-074>076-080>082-084>086-088>090-092>094-260200-
SOUTH-CENTRAL ILLINOIS

CITY           SKY/WX    TMP DP  RH WIND       PRES   REMARKS
CARBONDALE     CLEAR     76  53  44 NW6       30.15S
CAIRO*         CLEAR     79  56  45 NW5       30.15S
EFFINGHAM*     CLEAR     73  47  40 W12       30.17R
MARION         CLEAR     73  55  53 CALM      30.15S
MT. VERNON     CLEAR     76  48  37 CALM      30.15R
CENTRALIA*     CLEAR     75  48  37 NW10G20   30.15R
SALEM*         CLEAR     74  47  37 NW9       30.16R
METROPOLIS*    CLEAR     76  62  62 CALM      30.15S
$$

ILZ067-068-072-073-078-083-087-091-260200-
SOUTHEAST ILLINOIS

CITY           SKY/WX    TMP DP  RH WIND       PRES   REMARKS
LAWRENCEVILLE  CLEAR     73  50  44 NW9       30.13R
FLORA*         CLEAR     76  46  34 NW8       30.15R
FAIRFIELD*     CLEAR     74  48  39 CALM      30.14R
HARRISBURG*    CLEAR     76  55  48 CALM      30.15R
ROBINSON*      CLEAR     71  47  43 NW7       30.14S
CARMI*         CLEAR     73  58  61 W5        30.13S
$$

ABBREVIATIONS USED IN REMARKS
   TC - TEMPERATURE IN CELSIUS
  WCI - WIND CHILL INDEX
   HX - HEAT INDEX
  VSB - VISIBILITY
$$





USA.gov is the U.S. government's official web portal to all federal, state and local government web resources and services.